Miscellaneous Local Product
Issued by NWS Hastings, NE

Home | Current Version | Previous Version | Text Only | Print | Product List | Glossary Off
Versions: 1 2 3 4 5 6 7 8 9 10 11 12 13 14 15 16 17 18 19 20 21 22 23 24 25 26 27 28 29 30 31 32 33 34 35 36 37 38 39 40 41 42 43 44 45 46 47 48 49 50

000
AXUS43 KGID 210102
MISGRI

GID CWA HOURLY WEATHER ROUNDUP
NATIONAL WEATHER SERVICE HASTINGS NE
700 PM CST TUE FEB 20 2018

NOTE: "FAIR" INDICATES FEW OR NO CLOUDS BELOW 12,000 FEET WITH NO
SIGNIFICANT WEATHER AND/OR OBSTRUCTIONS TO VISIBILITY.

...SOUTH CENTRAL NEBRASKA...

CITY           SKY/WX    TMP DP  RH WIND       PRES   REMARKS
GRAND ISLAND   FAIR      13   4  67 N13       30.32R WCI  -2
KEARNEY        FAIR      11   3  70 N10       30.31R WCI  -3
HASTINGS       FAIR      14   5  67 N12       30.31R WCI   0
ORD            FAIR       8   0  69 N9        30.32R WCI  -5
YORK           FAIR      14   7  73 N12       30.32R WCI   0
AURORA         FAIR      13   4  67 N13       30.32R WCI  -1
LEXINGTON      FAIR      13   3  65 N12       30.29R WCI  -1
HOLDREGE       FAIR      13   5  70 N8        30.29R WCI   1
HEBRON         FAIR      19   9  65 N12       30.32R WCI   6

...NEBRASKA PANHANDLE...

CITY           SKY/WX    TMP DP  RH WIND       PRES   REMARKS
CHADRON        FAIR       1 -10  60 W12       30.20R WCI -16
ALLIANCE       FAIR      -6  -9  86 SE8       30.13R WCI -21
SCOTTSBLUFF    FAIR       6  -3  66 CALM      30.14R
SIDNEY         FAIR      -3 -10  72 NW3       30.14R

...WESTERN AND NORTH CENTRAL NEBRASKA...

CITY           SKY/WX    TMP DP  RH WIND       PRES   REMARKS
VALENTINE      FAIR      -3 -10  72 W5        30.27R WCI -13
AINSWORTH      FAIR       6  -1  73 CALM      30.29R
ONEILL         FAIR       4  -2  77 NW10      30.32R WCI -11
BROKEN BOW     FAIR       4  -3  73 N3        30.28R
IMPERIAL       FAIR       7  -1  70 N3        30.24R
NORTH PLATTE   FAIR       3  -5  69 NE7       30.28R WCI  -9
MCCOOK         FAIR      13   4  67 N9        30.28R WCI   1

...EASTERN NEBRASKA...

CITY           SKY/WX    TMP DP  RH WIND       PRES   REMARKS
NORFOLK        FAIR      10   3  73 NW13      30.31R WCI  -5
SO SIOUX CITY  FAIR      11   4  73 NW18      30.34R WCI  -7
TEKAMAH        FAIR      14   7  73 NW16      30.35R WCI  -2
COLUMBUS       FAIR      12   6  77 NW10      30.35R WCI  -1
ALBION         FAIR      10   3  74 NW13      30.31S WCI  -5
OMAHA EPPLEY   MOCLDY    16   9  74 NW15      30.32R WCI   1
OFFUTT AFB     FAIR      17   8  69 NW15      30.31R WCI   2
MILLARD        FAIR      18  10  70 NW13G22   30.33R WCI   4
LINCOLN        FAIR      17   8  67 N17       30.34R WCI   1
NEBRASKA CITY  FAIR      18  13  80 N15       30.30R WCI   4
BEATRICE       FAIR      19  12  72 N13       30.31R WCI   7
FALLS CITY     MOCLDY    19  11  70 N12       30.30R WCI   7

...NORTHERN KANSAS...

CITY           SKY/WX    TMP DP  RH WIND       PRES   REMARKS
GOODLAND       FAIR       9   1  70 N6        30.20R WCI  -1
HILL CITY      FAIR      17   2  51 N8        30.29R WCI   7
NORTON         CLEAR     12   0  57 N7        30.28R WCI   2
PHILLIPSBURG   CLEAR     19   3  49 NW7       30.31R WCI  10
SMITH CENTER   CLEAR     16   7  67 N8        30.31R WCI   5
BELOIT         CLEAR     19   7  58 N10       30.30R WCI   8
HAYS           FAIR      19   5  54 N12       30.27R WCI   7
RUSSELL        FAIR      22   6  50 N14       30.26R WCI   9
CONCORDIA      FAIR      20   9  62 N13       30.29R WCI   7
SALINA         MOCLDY    25  14  63 N15       30.28R WCI  13
TOPEKA         FAIR      23  18  81 N13G21    30.29R WCI  11



USA.gov is the U.S. government's official web portal to all federal, state and local government web resources and services.